| time (UTC) | temp F | wind direction | speed knots | gust knots | rain 1hr in | rain 24hr in | rain mn in | humidity % | barometer mb |
| 20260506115049 | 46 | 0.0 | 0.0 | 0.00 | 1.39 | 0.34 | 99 | 1014.2 | |
| 20260506114033 | 46 | 0.0 | 0.0 | 0.00 | 1.39 | 0.34 | 99 | 1014.2 | |
| 20260506113042 | 46 | 0.0 | 0.0 | 0.00 | 1.39 | 0.34 | 99 | 1014.1 | |
| 20260506112027 | 46 | 0.0 | 0.0 | 0.00 | 1.39 | 0.34 | 99 | 1014.0 | |
| 20260506111031 | 46 | 0.0 | 0.0 | 0.00 | 1.39 | 0.34 | 99 | 1013.8 | |
| 20260506110019 | 45 | 0.0 | 0.0 | 0.00 | 1.39 | 0.34 | 99 | 1013.3 | |
| 20260506105024 | 45 | 0.0 | 0.0 | 0.00 | 1.39 | 0.34 | 99 | 1013.5 | |
| 20260506104029 | 45 | 0.0 | 0.0 | 0.00 | 1.39 | 0.34 | 99 | 1013.7 | |
| 20260506103034 | 45 | 316 | 0.0 | 0.9 | 0.00 | 1.39 | 0.34 | 99 | 1013.6 |
| 20260506102022 | 45 | 166 | 0.0 | 0.9 | 0.00 | 1.39 | 0.34 | 99 | 1013.0 |
| 20260506101030 | 45 | 0.0 | 0.0 | 0.00 | 1.39 | 0.34 | 99 | 1013.4 | |
| 20260506100032 | 45 | 288 | 0.0 | 0.9 | 0.01 | 1.39 | 0.34 | 99 | 1013.2 |
| 20260506095020 | 45 | 0.0 | 0.0 | 0.04 | 1.39 | 0.34 | 99 | 1013.6 | |
| 20260506094025 | 45 | 43 | 0.0 | 1.7 | 0.04 | 1.39 | 0.34 | 99 | 1012.8 |
| 20260506093030 | 45 | 0.0 | 0.0 | 0.04 | 1.39 | 0.34 | 99 | 1013.0 | |
| 20260506092018 | 45 | 28 | 0.0 | 1.7 | 0.05 | 1.39 | 0.34 | 99 | 1012.9 |
| 20260506091023 | 45 | 0.0 | 0.0 | 0.05 | 1.39 | 0.34 | 99 | 1013.2 | |
| 20260506090049 | 46 | 165 | 0.0 | 0.9 | 0.04 | 1.38 | 0.32 | 99 | 1013.0 |
| 20260506085033 | 46 | 3 | 0.0 | 0.9 | 0.01 | 1.35 | 0.30 | 99 | 1012.8 |
| 20260506084058 | 46 | 307 | 0.0 | 1.7 | 0.01 | 1.35 | 0.30 | 99 | 1012.5 |
| 20260506083026 | 46 | 0.0 | 0.0 | 0.01 | 1.35 | 0.30 | 99 | 1012.2 | |
| 20260506082031 | 46 | 348 | 0.0 | 0.9 | 0.00 | 1.34 | 0.28 | 99 | 1012.0 |
| 20260506081035 | 46 | 317 | 0.9 | 2.6 | 0.00 | 1.34 | 0.28 | 99 | 1011.9 |
| 20260506073022 | 48 | 360 | 0.0 | 0.9 | 0.00 | 1.34 | 0.28 | 99 | 1011.7 |
| 20260506072026 | 48 | 325 | 0.0 | 1.7 | 0.08 | 1.34 | 0.28 | 99 | 1012.1 |
| 20260506071031 | 48 | 350 | 0.0 | 0.9 | 0.24 | 1.34 | 0.28 | 99 | 1012.5 |
| 20260506062023 | 49 | 306 | 0.0 | 2.6 | 0.19 | 1.25 | 0.20 | 99 | 1011.9 |
| 20260506061027 | 49 | 266 | 0.9 | 2.6 | 0.03 | 1.09 | 0.04 | 99 | 1011.7 |
| 20260506051023 | 49 | 0.0 | 1.7 | 0.02 | 1.06 | 0.01 | 99 | 1010.5 | |
| 20260506045033 | 50 | 321 | 0.0 | 2.6 | 0.01 | 1.05 | 1.05 | 99 | 1010.5 |
| 20260506044021 | 50 | 344 | 0.0 | 1.7 | 0.01 | 1.05 | 1.05 | 99 | 1011.0 |
| 20260506043026 | 50 | 4 | 0.0 | 1.7 | 0.02 | 1.05 | 1.05 | 99 | 1011.0 |
| 20260506042031 | 50 | 47 | 0.0 | 2.6 | 0.06 | 1.05 | 1.05 | 99 | 1011.0 |
| 20260506041018 | 50 | 349 | 0.0 | 3.5 | 0.07 | 1.04 | 1.04 | 99 | 1010.9 |
| 20260506040024 | 51 | 335 | 0.9 | 3.5 | 0.08 | 1.04 | 1.04 | 99 | 1010.9 |
| 20260506035029 | 51 | 341 | 0.0 | 1.7 | 0.09 | 1.04 | 1.04 | 99 | 1010.7 |
| 20260506034038 | 51 | 9 | 0.0 | 1.7 | 0.09 | 1.04 | 1.04 | 99 | 1010.5 |
| 20260506033022 | 51 | 351 | 0.0 | 0.9 | 0.09 | 1.03 | 1.03 | 99 | 1010.3 |
| 20260506032047 | 51 | 288 | 0.0 | 3.5 | 0.06 | 0.99 | 0.99 | 99 | 1010.2 |
| 20260506031032 | 51 | 0.0 | 0.9 | 0.05 | 0.97 | 0.97 | 99 | 1010.1 | |
| 20260506030020 | 51 | 307 | 0.0 | 3.5 | 0.04 | 0.96 | 0.96 | 99 | 1009.7 |
| 20260506025024 | 52 | 342 | 0.9 | 5.2 | 0.03 | 0.95 | 0.95 | 99 | 1009.9 |
| 20260506024029 | 52 | 337 | 0.9 | 3.5 | 0.05 | 0.95 | 0.95 | 99 | 1009.5 |
| 20260506023018 | 52 | 32 | 0.0 | 2.6 | 0.05 | 0.94 | 0.94 | 99 | 1009.3 |
| 20260506022023 | 53 | 334 | 0.9 | 6.1 | 0.04 | 0.93 | 0.93 | 99 | 1009.2 |
| 20260506021027 | 53 | 301 | 1.7 | 6.1 | 0.05 | 0.92 | 0.92 | 99 | 1009.1 |
| 20260506020053 | 54 | 354 | 0.9 | 3.5 | 0.05 | 0.92 | 0.92 | 99 | 1008.6 |
| 20260506015021 | 54 | 338 | 0.0 | 1.7 | 0.05 | 0.92 | 0.92 | 99 | 1008.2 |
| 20260506014026 | 55 | 0.0 | 0.0 | 0.04 | 0.90 | 0.90 | 99 | 1008.3 | |
| 20260506013030 | 55 | 0.0 | 0.0 | 0.03 | 0.89 | 0.89 | 99 | 1008.4 | |
| 20260506012019 | 55 | 0.0 | 0.0 | 0.04 | 0.89 | 0.89 | 99 | 1008.3 | |
| 20260506011024 | 55 | 0.0 | 0.0 | 0.05 | 0.87 | 0.87 | 99 | 1008.0 | |
| 20260506010029 | 55 | 267 | 0.0 | 0.9 | 0.05 | 0.87 | 0.87 | 99 | 1008.3 |
| 20260506005037 | 55 | 0.0 | 0.0 | 0.06 | 0.87 | 0.87 | 99 | 1008.2 | |
| 20260506004042 | 55 | 0.0 | 0.0 | 0.06 | 0.86 | 0.86 | 99 | 1008.1 | |
| 20260506003026 | 55 | 65 | 0.0 | 0.9 | 0.07 | 0.86 | 0.86 | 99 | 1008.1 |
| 20260506002031 | 56 | 343 | 0.0 | 0.9 | 0.07 | 0.85 | 0.85 | 99 | 1008.5 |
| 20260506001019 | 56 | 0.0 | 0.0 | 0.06 | 0.82 | 0.82 | 99 | 1008.4 | |
| 20260506000044 | 56 | 0.0 | 0.0 | 0.10 | 0.82 | 0.82 | 99 | 1008.2 | |
| 20260505235049 | 56 | 0.0 | 0.9 | 0.17 | 0.81 | 0.81 | 99 | 1008.0 | |
| 20260505234017 | 56 | 68 | 0.0 | 2.6 | 0.19 | 0.80 | 0.80 | 99 | 1007.9 |
| 20260505233022 | 56 | 339 | 0.0 | 1.7 | 0.19 | 0.79 | 0.79 | 99 | 1008.4 |
| 20260505232027 | 56 | 316 | 0.0 | 1.7 | 0.18 | 0.78 | 0.78 | 99 | 1008.3 |
| 20260505231032 | 56 | 308 | 0.0 | 3.5 | 0.17 | 0.76 | 0.76 | 99 | 1008.6 |
| 20260505230020 | 58 | 332 | 3.5 | 7.8 | 0.13 | 0.72 | 0.72 | 99 | 1008.9 |
| 20260505225133 | 63 | 315 | 3.5 | 7.8 | 0.06 | 0.64 | 0.64 | 99 | 1008.7 |
| 20260505224111 | 63 | 272 | 2.6 | 3.5 | 0.05 | 0.61 | 0.61 | 99 | 1008.5 |
| 20260505223035 | 63 | 254 | 0.9 | 5.2 | 0.04 | 0.60 | 0.60 | 99 | 1008.4 |
| 20260505222043 | 63 | 232 | 1.7 | 3.5 | 0.05 | 0.60 | 0.60 | 99 | 1008.4 |
| 20260505221028 | 63 | 203 | 2.6 | 5.2 | 0.04 | 0.59 | 0.59 | 99 | 1008.5 |
| 20260505220032 | 63 | 227 | 1.7 | 6.1 | 0.04 | 0.59 | 0.59 | 99 | 1008.5 |
| 20260505215020 | 63 | 200 | 0.9 | 3.5 | 0.03 | 0.58 | 0.58 | 99 | 1008.5 |
| 20260505214026 | 63 | 191 | 0.0 | 1.7 | 0.02 | 0.56 | 0.56 | 99 | 1008.4 |
| 20260505213030 | 63 | 198 | 0.9 | 2.6 | 0.02 | 0.56 | 0.56 | 99 | 1008.4 |
| 20260505212018 | 63 | 240 | 0.0 | 2.6 | 0.02 | 0.55 | 0.55 | 99 | 1008.6 |
| 20260505211024 | 63 | 220 | 1.7 | 2.6 | 0.02 | 0.55 | 0.55 | 99 | 1008.5 |
| 20260505210028 | 63 | 254 | 0.0 | 2.6 | 0.02 | 0.55 | 0.55 | 99 | 1008.3 |
| 20260505205016 | 63 | 219 | 0.9 | 2.6 | 0.02 | 0.55 | 0.55 | 99 | 1008.5 |
| 20260505204022 | 63 | 226 | 0.9 | 2.6 | 0.01 | 0.54 | 0.54 | 99 | 1008.5 |
| 20260505203026 | 63 | 217 | 0.9 | 3.5 | 0.01 | 0.54 | 0.54 | 99 | 1008.5 |
| 20260505202031 | 63 | 213 | 0.9 | 3.5 | 0.01 | 0.53 | 0.53 | 99 | 1008.5 |
| 20260505201040 | 63 | 206 | 2.6 | 6.1 | 0.01 | 0.53 | 0.53 | 99 | 1008.6 |
| 20260505200024 | 63 | 210 | 1.7 | 6.1 | 0.01 | 0.53 | 0.53 | 99 | 1008.8 |
| 20260505195029 | 63 | 204 | 1.7 | 6.1 | 0.01 | 0.53 | 0.53 | 99 | 1008.6 |
| 20260505194017 | 63 | 183 | 0.9 | 2.6 | 0.01 | 0.53 | 0.53 | 99 | 1008.7 |
| 20260505193043 | 62 | 195 | 0.9 | 5.2 | 0.01 | 0.53 | 0.53 | 99 | 1009.0 |
| 20260505192027 | 62 | 207 | 1.7 | 5.2 | 0.00 | 0.52 | 0.52 | 99 | 1009.2 |
| 20260505191032 | 62 | 213 | 1.7 | 5.2 | 0.00 | 0.52 | 0.52 | 99 | 1009.3 |
| 20260505190020 | 62 | 208 | 0.9 | 3.5 | 0.00 | 0.52 | 0.52 | 99 | 1009.1 |
| 20260505185025 | 62 | 191 | 1.7 | 3.5 | 0.00 | 0.52 | 0.52 | 99 | 1009.0 |
| 20260505184030 | 62 | 102 | 0.9 | 3.5 | 0.00 | 0.52 | 0.52 | 99 | 1009.1 |
| 20260505183039 | 62 | 142 | 0.9 | 3.5 | 0.00 | 0.52 | 0.52 | 99 | 1009.3 |
| 20260505182023 | 62 | 195 | 1.7 | 5.2 | 0.00 | 0.52 | 0.52 | 99 | 1009.4 |
| 20260505181027 | 62 | 79 | 0.9 | 2.6 | 0.00 | 0.52 | 0.52 | 99 | 1009.5 |
| 20260505180033 | 62 | 191 | 1.7 | 3.5 | 0.01 | 0.52 | 0.52 | 99 | 1009.6 |
| 20260505175021 | 61 | 220 | 1.7 | 6.1 | 0.02 | 0.52 | 0.52 | 99 | 1009.8 |
| 20260505174046 | 61 | 84 | 0.9 | 3.5 | 0.09 | 0.52 | 0.52 | 99 | 1010.1 |
| 20260505173112 | 61 | 119 | 0.0 | 1.7 | 0.10 | 0.52 | 0.52 | 99 | 1010.1 |
| 20260505172039 | 61 | 277 | 0.0 | 0.9 | 0.10 | 0.52 | 0.52 | 99 | 1010.3 |
| 20260505171024 | 60 | 86 | 0.0 | 0.9 | 0.10 | 0.52 | 0.52 | 99 | 1010.3 |
| 20260505170029 | 60 | 153 | 0.0 | 1.7 | 0.10 | 0.51 | 0.51 | 99 | 1010.4 |
| 20260505165016 | 60 | 204 | 0.9 | 5.2 | 0.09 | 0.50 | 0.50 | 99 | 1010.7 |
| 20260505164022 | 60 | 180 | 2.6 | 5.2 | 0.03 | 0.43 | 0.43 | 99 | 1010.7 |
| 20260505163027 | 61 | 103 | 0.9 | 3.5 | 0.03 | 0.42 | 0.42 | 99 | 1010.5 |
| 20260505162053 | 60 | 109 | 0.9 | 2.6 | 0.03 | 0.42 | 0.42 | 99 | 1010.5 |
| 20260505161020 | 60 | 184 | 0.9 | 1.7 | 0.04 | 0.42 | 0.42 | 99 | 1010.5 |
| 20260505153022 | 60 | 126 | 0.9 | 3.5 | 0.01 | 0.39 | 0.39 | 99 | 1010.6 |
| 20260505152028 | 60 | 89 | 0.0 | 3.5 | 0.02 | 0.39 | 0.39 | 99 | 1010.4 |
| 20260505151032 | 60 | 0.0 | 0.0 | 0.01 | 0.38 | 0.38 | 99 | 1010.6 | |
| 20260505125018 | 65 | 182 | 1.7 | 3.5 | 0.00 | 0.00 | 0.00 | 75 | 1009.9 |
| 20260505124022 | 64 | 198 | 2.6 | 7.0 | 0.00 | 0.00 | 0.00 | 75 | 1009.8 |
| 20260505123027 | 64 | 200 | 1.7 | 5.2 | 0.00 | 0.00 | 0.00 | 75 | 1009.7 |
| 20260505122032 | 64 | 207 | 1.7 | 2.6 | 0.00 | 0.00 | 0.00 | 75 | 1009.5 |
| 20260505121020 | 63 | 319 | 0.9 | 1.7 | 0.00 | 0.00 | 0.00 | 76 | 1009.4 |
| 20260505120025 | 63 | 123 | 0.9 | 6.1 | 0.00 | 0.00 | 0.00 | 75 | 1009.2 |